Location: Neuvy Saint Sepulchre
(46.5953°N, 1.8122°E)
Time: 19:49:04
(UTC+01:00)

ISS - Pass Details

Date: 27 November 2021
Orbit: 417 x 422 km, 51.6° (Epoch: 06 December)

Event Time Altitude Azimuth Distance (km) Brightness Sun altitude
Rises 18:36:59 0° 274° (W) 2,375 1.5 -14.7°
Reaches altitude 10° 18:39:12 10° 283° (WNW) 1,511 0.0 -15.1°
Maximum altitude 18:42:22 36° 352° (N) 694 -2.8 -15.6°
Enters shadow 18:43:26 28° 32° (NNE) 829 -2.7 -15.8°
